This is the latest recevied weather packets stored in our database for station/object WP4PW. If no packets are shown the sender has not sent any weather packets the latest 10 day(s).
| Time | Temp. | Humidity | Pressure | Rain* | Wind** | Luminosity | Snow |
|---|---|---|---|---|---|---|---|
| 1777555605 | 28.89° C | 81% | 1018.3 hPa | 0 mm | - | 391 W/m² | - |
| 1777555303 | 28.33° C | 81% | 1018.4 hPa | 0 mm | - | 346 W/m² | - |
| 1777554999 | 28.33° C | 82% | 1018.3 hPa | 0 mm | - | 374 W/m² | - |
| 1777554696 | 28.33° C | 83% | 1018.3 hPa | 0 mm | - | 336 W/m² | - |
| 1777554393 | 28.33° C | 82% | 1018.3 hPa | 0 mm | - | 319 W/m² | - |
| 1777554090 | 28.33° C | 83% | 1018.2 hPa | 0 mm | - | 296 W/m² | - |
| 1777553786 | 28.33° C | 84% | 1018 hPa | 0 mm | - | 266 W/m² | - |
| 1777553483 | 27.78° C | 84% | 1018.1 hPa | 0 mm | - | 259 W/m² | - |
| 1777553179 | 27.78° C | 85% | 1018 hPa | 0 mm | - | 245 W/m² | - |
| 1777552874 | 27.78° C | 85% | 1017.9 hPa | 0 mm | - | 238 W/m² | - |
| 1777552570 | 27.78° C | 85% | 1017.9 hPa | 0 mm | - | 222 W/m² | - |
| 1777552266 | 27.78° C | 85% | 1017.8 hPa | 0 mm | - | 214 W/m² | - |
| 1777551963 | 27.78° C | 86% | 1017.8 hPa | 0 mm | - | 211 W/m² | - |
| 1777551660 | 27.78° C | 87% | 1017.7 hPa | 0 mm | - | 209 W/m² | - |
| 1777551358 | 27.78° C | 88% | 1017.7 hPa | 0 mm | - | 200 W/m² | - |
| 1777551054 | 27.22° C | 89% | 1017.7 hPa | 0 mm | - | 205 W/m² | - |
| 1777550751 | 26.67° C | 90% | 1017.6 hPa | 0 mm | - | 181 W/m² | - |
| 1777550447 | 26.67° C | 90% | 1017.7 hPa | 0 mm | - | 159 W/m² | - |
| 1777550144 | 26.67° C | 91% | 1017.4 hPa | 0 mm | - | 158 W/m² | - |
| 1777549840 | 26.67° C | 91% | 1017.5 hPa | 0 mm | - | 142 W/m² | - |
| 1777549536 | 26.11° C | 92% | 1017.4 hPa | 0 mm | - | 140 W/m² | - |
| 1777549232 | 25.56° C | 94% | 1017.3 hPa | 0 mm | - | 134 W/m² | - |
| 1777548929 | 25.56° C | 94% | 1017.2 hPa | 0 mm | - | 117 W/m² | - |
| 1777548626 | 25.56° C | 95% | 1017.2 hPa | 0 mm | - | 103 W/m² | - |
| 1777548323 | 25.56° C | 95% | 1017 hPa | 0 mm | - | 85 W/m² | - |
* Rain latest hour (hover to see other rain measurements)
** Current wind speed in m/s (hover to see current wind gust speed)